AC1IX Weather Reports


time (UTC)temp
F
wind
direction
speed
knots
gust
knots
rain 1hr
in
rain 24hr
in
rain mn
in
humidity
%
barometer
mb
20260507000508 45 301 0.0 0.0 0.00 0.59 0.59 99 1009.2
20260507000004 46 297 0.0 0.0 0.00 0.59 0.59 99 1009.0
20260506235502 46 291 0.0 0.0 0.00 0.59 0.59 99 1009.1
20260506234957 47 301 0.0 0.9 0.05 0.59 0.59 99 1008.9
20260506234455 47 291 0.9 1.7 0.12 0.59 0.59 99 1008.8
20260506233952 48 300 0.0 0.0 0.07 0.58 0.58 99 1008.6
20260506233449 48 287 0.9 0.9 0.00 0.57 0.57 99 1008.2
20260506232945 48 291 0.0 0.0 0.00 0.57 0.57 99 1008.2
20260506232442 49 300 0.9 0.9 0.00 0.57 0.57 99 1007.9
20260506231937 49 300 0.0 0.0 0.00 0.57 0.57 99 1007.8
20260506231436 48 297 0.0 0.0 0.00 0.57 0.57 99 1007.5
20260506230932 48 298 0.0 0.0 0.05 0.57 0.57 99 1007.7
20260506230428 48 297 0.0 0.0 0.05 0.57 0.57 99 1007.8
20260506225925 49 291 0.0 0.0 0.00 0.56 0.56 99 1007.8
20260506225422 50 298 0.0 0.0 0.00 0.56 0.56 99 1007.7
20260506224919 50 296 0.0 0.0 0.00 0.56 0.56 99 1007.7
20260506224417 51 305 0.0 0.0 0.00 0.56 0.56 99 1007.3
20260506223913 52 302 0.0 0.0 0.00 0.56 0.56 99 1006.9
20260506223408 53 304 0.0 0.9 0.07 0.56 0.56 99 1006.7
20260506222906 53 229 0.9 0.9 0.07 0.56 0.56 99 1007.0
20260506222402 54 321 0.0 0.9 0.00 0.55 0.55 99 1006.3
20260506221859 54 293 0.0 0.0 0.05 0.55 0.55 99 1006.2
20260506221356 57 46 1.7 2.6 0.35 0.55 0.55 99 1006.2
20260506220854 57 300 0.0 0.0 0.54 0.54 0.54 99 1005.9
20260506220349 58 301 0.0 0.0 0.24 0.49 0.49 99 1005.9
20260506215846 58 313 0.9 0.9 0.00 0.45 0.45 99 1005.7
20260506215342 59 296 0.0 0.9 0.00 0.45 0.45 99 1005.4
20260506214838 59 292 0.0 0.0 0.00 0.45 0.45 99 1005.4
20260506214335 58 295 0.0 0.0 0.00 0.45 0.45 99 1005.4
20260506213833 59 293 0.0 0.0 0.00 0.45 0.45 99 1005.5
20260506213330 59 294 0.0 0.0 0.00 0.45 0.45 99 1005.2
20260506212827 59 295 0.0 0.0 0.00 0.45 0.45 99 1005.4
20260506212323 59 293 0.0 0.0 0.00 0.45 0.45 99 1005.5
20260506211818 59 293 0.0 0.0 0.00 0.45 0.45 99 1005.4
20260506211315 59 288 0.0 0.0 0.07 0.45 0.45 99 1005.6
20260506210812 59 280 0.0 0.9 0.07 0.45 0.45 99 1005.5
20260506210309 58 294 0.0 0.0 0.00 0.44 0.44 99 1005.5
20260506205806 59 294 0.0 0.0 0.00 0.44 0.44 99 1005.7
20260506205305 59 296 0.0 0.0 0.00 0.44 0.44 99 1005.7
20260506204758 59 294 0.0 0.0 0.00 0.44 0.44 99 1005.7
20260506204256 59 294 0.0 0.0 0.00 0.44 0.44 99 1005.8
20260506203754 59 294 0.0 0.0 0.00 0.44 0.44 99 1006.0
20260506203251 58 290 0.0 0.0 0.00 0.44 0.44 99 1005.8
20260506202748 58 292 0.0 0.0 0.05 0.44 0.44 99 1005.9
20260506202244 58 296 0.0 0.0 0.12 0.44 0.44 99 1006.1
20260506201741 58 296 0.0 0.0 0.12 0.43 0.43 99 1006.1
20260506201238 59 293 0.0 0.0 0.12 0.42 0.42 99 1006.1
20260506200735 59 294 0.0 0.0 0.07 0.41 0.41 99 1006.1
20260506200232 59 296 0.0 0.0 0.00 0.40 0.40 99 1006.4
20260506195728 58 295 0.0 0.0 0.00 0.40 0.40 99 1006.2
20260506195225 58 286 0.9 0.9 0.00 0.40 0.40 99 1006.5
20260506194722 58 289 0.0 0.0 0.05 0.40 0.40 99 1006.4
20260506194218 58 290 0.0 0.9 0.05 0.40 0.40 99 1006.2
20260506193716 59 283 0.0 0.9 0.00 0.39 0.39 99 1006.4
20260506193213 58 291 0.0 0.0 0.00 0.39 0.39 99 1006.2
20260506192709 58 293 0.0 0.0 0.00 0.39 0.39 99 1006.4
20260506192206 58 291 1.7 1.7 0.00 0.39 0.39 99 1006.2
20260506191703 58 296 0.0 0.9 0.00 0.39 0.39 99 1006.1
20260506191159 59 286 0.0 0.0 0.00 0.39 0.39 99 1006.3
20260506190657 58 281 0.0 0.9 0.00 0.39 0.39 99 1006.5
20260506190153 58 327 1.7 2.6 0.00 0.39 0.39 99 1006.5
20260506185650 59 288 0.0 0.9 0.07 0.39 0.39 99 1006.7
20260506185146 59 289 0.0 0.9 0.07 0.39 0.39 99 1006.5
20260506184644 59 283 0.0 0.9 0.07 0.38 0.38 99 1006.7
20260506184141 59 290 0.0 0.0 0.12 0.38 0.38 99 1006.4
20260506183638 59 290 0.0 0.0 0.12 0.37 0.37 99 1006.6
20260506183133 59 298 0.0 0.0 0.07 0.36 0.36 99 1006.6
20260506182631 59 290 0.0 0.9 0.00 0.35 0.35 99 1006.6
20260506182128 59 288 0.0 0.0 0.05 0.35 0.35 99 1006.5
20260506181626 59 281 0.9 0.9 0.05 0.35 0.35 99 1006.7
20260506181123 59 293 0.9 0.9 0.07 0.34 0.34 99 1006.6
20260506180620 58 301 0.0 0.0 0.12 0.34 0.34 99 1006.6
20260506180116 59 293 0.0 0.9 0.12 0.33 0.33 99 1006.5
20260506175612 59 293 0.9 0.9 0.07 0.32 0.32 99 1006.4
20260506175108 58 297 0.0 0.0 0.05 0.31 0.31 99 1006.9
20260506174608 58 296 0.0 0.9 0.12 0.31 0.31 99 1006.7
20260506174103 58 295 0.0 0.0 0.12 0.30 0.30 99 1007.2
20260506173601 58 298 0.0 0.0 0.12 0.29 0.29 99 1007.4
20260506173058 58 295 0.0 0.0 0.19 0.28 0.28 99 1007.2
20260506172555 58 293 0.0 0.0 0.24 0.27 0.27 99 1007.4
20260506172051 59 296 0.0 0.0 0.19 0.25 0.25 99 1007.3
20260506171549 59 291 0.0 0.0 0.12 0.23 0.23 99 1007.4
20260506171047 59 293 0.0 0.0 0.12 0.22 0.22 99 1007.5
20260506170544 59 290 0.0 0.0 0.07 0.21 0.21 99 1007.4
20260506170041 59 295 0.0 0.0 0.05 0.20 0.20 99 1007.5
20260506165540 59 305 1.7 1.7 0.17 0.20 0.20 99 1007.9
20260506165035 59 296 0.0 0.0 0.19 0.19 0.19 99 1008.0
20260506164532 59 296 0.0 0.9 0.12 0.17 0.17 99 1008.0
20260506164030 59 298 0.0 0.9 0.12 0.16 0.16 99 1008.1
20260506163526 59 310 0.0 0.9 0.14 0.15 0.15 99 1008.0
20260506163021 59 295 0.0 0.0 0.12 0.14 0.14 99 1008.2
20260506162518 59 295 0.0 0.0 0.12 0.13 0.13 99 1008.0
20260506162015 59 296 0.0 0.0 0.12 0.12 0.12 99 1008.2
20260506161513 59 281 0.0 0.0 0.12 0.11 0.11 99 1008.5
20260506161010 59 297 0.0 0.0 0.12 0.10 0.10 99 1008.4
20260506160508 59 295 0.0 0.0 0.05 0.09 0.09 99 1008.4
20260506160005 59 289 0.0 0.9 0.07 0.08 0.08 99 1008.4
20260506155503 59 291 0.0 0.0 0.07 0.08 0.08 99 1008.1
20260506153634 59 305 0.0 0.0 0.07 0.06 0.06 99 1008.3
20260506153131 59 294 0.0 0.0 0.05 0.05 0.05 99 1008.3
20260506152628 59 328 0.9 0.9 0.05 0.05 0.05 99 1008.4
20260506152126 59 290 0.0 0.0 0.07 0.04 0.04 99 1008.5
20260506151624 58 290 0.0 0.0 0.07 0.04 0.04 99 1008.6
20260506151121 58 293 0.0 0.0 0.00 0.03 0.03 99 1008.6
20260506150618 58 297 0.0 0.0 0.05 0.03 0.03 98 1008.8
20260506150115 58 297 0.0 0.0 0.05 0.03 0.03 97 1009.0
20260506145612 58 296 0.0 0.0 0.07 0.02 0.02 97 1008.9
20260506145108 59 296 0.0 0.0 0.14 0.02 0.02 95 1009.1
20260506144605 59 300 0.0 0.0 0.07 0.01 0.01 94 1009.2
20260506144102 60 302 0.0 0.0 0.00 0.00 0.00 91 1009.2
20260506143600 61 306 0.0 0.0 0.00 0.00 0.00 89 1009.1
20260506143058 62 295 0.0 0.0 0.00 0.00 0.00 88 1009.1
20260506142556 62 295 0.0 0.0 0.00 0.00 0.00 86 1009.2
20260506142054 62 290 0.0 0.0 0.00 0.00 0.00 85 1009.0
20260506141551 63 261 0.0 0.9 0.00 0.00 0.00 85 1009.1
20260506141049 63 281 0.0 0.9 0.00 0.00 0.00 84 1008.9
20260506140547 63 266 0.9 0.9 0.00 0.00 0.00 83 1008.9
20260506140044 63 288 0.9 0.9 0.00 0.00 0.00 83 1008.7
20260506135541 64 288 0.9 0.9 0.00 0.00 0.00 83 1008.7
20260506135037 64 278 1.7 1.7 0.00 0.00 0.00 82 1008.7
20260506134533 64 273 0.0 0.0 0.00 0.00 0.00 84 1008.7
20260506134029 64 281 0.9 1.7 0.00 0.00 0.00 82 1008.6
20260506133527 64 293 0.9 0.9 0.00 0.00 0.00 82 1008.3
20260506133023 64 291 0.9 0.9 0.00 0.00 0.00 81 1008.2
20260506132521 64 275 0.9 1.7 0.00 0.00 0.00 82 1008.4
20260506132018 64 294 0.0 0.0 0.00 0.00 0.00 83 1008.4
20260506131515 63 294 0.0 0.0 0.00 0.00 0.00 85 1008.5
20260506131011 62 311 0.9 0.9 0.00 0.00 0.00 84 1008.4
20260506130508 62 301 0.0 0.9 0.00 0.00 0.00 85 1008.5
20260506130006 62 291 0.9 0.9 0.00 0.00 0.00 85 1008.8
20260506125504 62 299 0.0 0.9 0.00 0.00 0.00 87 1008.6
20260506125001 61 298 0.9 0.9 0.00 0.00 0.00 85 1009.0
20260506124459 61 293 0.0 0.0 0.00 0.00 0.00 85 1009.2
20260506123957 61 296 0.9 1.7 0.00 0.00 0.00 84 1009.2
20260506123454 61 279 0.0 0.9 0.00 0.00 0.00 84 1009.3
20260506122952 61 292 0.9 0.9 0.00 0.00 0.00 84 1009.2
20260506122449 61 295 0.0 0.9 0.00 0.00 0.00 85 1009.1
20260506121947 61 287 0.9 0.9 0.00 0.00 0.00 84 1009.3
20260506121444 61 292 0.9 1.7 0.00 0.00 0.00 85 1009.2
20260506120940 61 290 0.9 0.9 0.00 0.00 0.00 83 1009.1
20260506120438 61 297 0.0 0.9 0.00 0.00 0.00 84 1009.0
20260506115935 60 282 0.9 1.7 0.00 0.00 0.00 86 1009.1
20260506115433 61 262 0.0 0.0 0.00 0.00 0.00 86 1009.1
20260506114931 61 295 0.0 0.0 0.00 0.00 0.00 85 1008.9
20260506114428 60 289 0.9 1.7 0.00 0.00 0.00 85 1008.9
20260506113927 60 294 0.0 0.0 0.00 0.00 0.00 87 1008.6
20260506113424 59 291 0.0 0.0 0.00 0.00 0.00 88 1008.4
20260506112920 59 293 0.9 0.9 0.00 0.00 0.00 89 1008.3
20260506112419 59 303 0.0 0.0 0.00 0.00 0.00 91 1008.6
20260506111916 59 297 0.0 0.0 0.00 0.00 0.00 90 1008.8
20260506111414 59 291 0.0 0.0 0.00 0.00 0.00 90 1008.8
20260506110910 59 294 0.0 0.0 0.00 0.00 0.00 90 1008.8
20260506110408 57 264 0.0 0.9 0.00 0.00 0.00 91 1008.8
20260506105904 55 279 0.9 0.9 0.00 0.00 0.00 99 1008.8
20260506105401 55 294 0.0 0.0 0.00 0.00 0.00 99 1008.5
20260506104858 54 289 0.0 0.0 0.00 0.00 0.00 99 1008.4
20260506104356 54 298 0.0 0.0 0.00 0.00 0.00 99 1008.4
20260506103853 53 294 0.0 0.0 0.00 0.00 0.00 99 1008.5
20260506103351 53 294 0.0 0.0 0.00 0.00 0.00 99 1008.5
20260506102848 52 292 0.0 0.0 0.00 0.00 0.00 99 1008.3
20260506102346 51 300 0.0 0.0 0.00 0.00 0.00 99 1008.4
20260506101843 50 294 0.0 0.0 0.00 0.00 0.00 99 1008.5
20260506101339 50 295 0.0 0.0 0.00 0.00 0.00 99 1008.4
20260506100837 49 291 0.0 0.0 0.00 0.00 0.00 99 1008.6
20260506100335 49 287 0.0 0.0 0.00 0.00 0.00 99 1008.4
20260506095833 49 295 0.0 0.0 0.00 0.00 0.00 99 1008.5
20260506095330 49 295 0.0 0.0 0.00 0.00 0.00 99 1008.2
20260506094827 49 291 0.0 0.0 0.00 0.00 0.00 99 1008.6
20260506094326 49 295 0.0 0.0 0.00 0.00 0.00 99 1008.3
20260506093823 49 293 0.0 0.0 0.00 0.00 0.00 99 1008.4
20260506093320 49 295 0.0 0.0 0.00 0.00 0.00 99 1008.5
20260506092818 49 295 0.0 0.0 0.00 0.00 0.00 99 1008.5
20260506092315 49 293 0.0 0.0 0.00 0.00 0.00 99 1008.8
20260506091812 49 290 0.0 0.0 0.00 0.00 0.00 99 1008.5
20260506091310 49 255 0.0 0.9 0.00 0.00 0.00 99 1008.8
20260506090808 49 295 0.0 0.0 0.00 0.00 0.00 99 1008.8
20260506090304 49 293 0.0 0.0 0.00 0.00 0.00 99 1008.9
20260506085801 49 292 0.0 0.0 0.00 0.00 0.00 99 1008.9
20260506085257 50 292 0.0 0.0 0.00 0.00 0.00 99 1008.9
20260506084754 50 285 0.0 0.0 0.00 0.00 0.00 99 1008.9
20260506084250 50 294 0.0 0.0 0.00 0.00 0.00 99 1008.7
20260506083747 50 292 0.0 0.0 0.00 0.00 0.00 99 1008.9
20260506083245 50 294 0.0 0.0 0.00 0.00 0.00 99 1008.9
20260506082742 50 294 0.0 0.0 0.00 0.00 0.00 99 1008.8
20260506082237 50 294 0.0 0.0 0.00 0.00 0.00 99 1008.9
20260506081736 51 294 0.0 0.0 0.00 0.00 0.00 99 1009.0
20260506081233 50 292 0.9 0.9 0.00 0.00 0.00 99 1009.4
20260506080731 51 294 0.0 0.0 0.00 0.00 0.00 99 1009.1
20260506080227 51 290 0.0 0.0 0.00 0.00 0.00 99 1009.5
20260506073211 51 295 0.0 0.0 0.00 0.00 0.00 99 1009.4
20260506072708 52 296 0.0 0.0 0.00 0.00 0.00 99 1009.7
20260506072206 52 294 0.0 0.0 0.00 0.00 0.00 99 1009.5
20260506071703 52 294 0.0 0.0 0.00 0.00 0.00 99 1009.6
20260506071201 52 294 0.0 0.0 0.00 0.00 0.00 99 1009.8
20260506070657 52 294 0.0 0.0 0.00 0.00 0.00 99 1009.8
20260506070154 53 295 0.0 0.0 0.00 0.00 0.00 99 1009.5
20260506062131 54 293 0.0 0.0 0.00 0.00 0.00 99 1009.7
20260506061627 54 292 0.0 0.0 0.00 0.00 0.00 99 1009.9
20260506061125 54 297 0.0 0.0 0.00 0.00 0.00 99 1009.7
20260506060623 54 295 0.0 0.0 0.00 0.00 0.00 99 1009.6
20260506060120 54 292 0.0 0.0 0.00 0.00 0.00 99 1009.7
20260506051052 56 291 0.0 0.0 0.00 0.00 0.00 99 1010.2
20260506050550 56 293 0.0 0.0 0.00 0.00 0.00 99 1010.4
20260506045040 56 297 0.0 0.0 0.00 0.00 0.00 99 1010.5
20260506044538 56 297 0.0 0.0 0.00 0.00 0.00 99 1010.5
20260506044035 56 295 0.0 0.0 0.00 0.00 0.00 99 1010.4
20260506043532 57 293 0.0 0.0 0.00 0.00 0.00 99 1010.5
20260506043030 57 295 0.0 0.0 0.00 0.00 0.00 99 1010.2
20260506042529 57 297 0.0 0.0 0.00 0.00 0.00 99 1010.2
20260506042027 57 286 0.0 0.9 0.00 0.00 0.00 99 1010.3
20260506041525 57 293 0.0 0.0 0.00 0.00 0.00 99 1009.9
20260506041021 57 288 0.0 0.0 0.00 0.00 0.00 99 1010.1
20260506040519 57 294 0.0 0.0 0.00 0.00 0.00 99 1010.0
20260506040015 57 291 0.0 0.0 0.00 0.05 0.05 99 1009.8
20260506035512 57 294 0.0 0.0 0.00 0.05 0.05 99 1010.1
20260506035009 57 294 0.9 0.9 0.00 0.05 0.05 99 1009.8
20260506034507 58 292 0.0 0.0 0.00 0.05 0.05 99 1009.9
20260506034003 58 296 0.0 0.0 0.00 0.05 0.05 99 1010.3
20260506033501 58 265 0.9 0.9 0.00 0.05 0.05 99 1010.2
20260506032957 58 292 0.0 0.0 0.00 0.05 0.05 99 1010.3
20260506032455 58 291 0.0 0.0 0.00 0.05 0.05 99 1009.6
20260506031951 58 292 0.0 0.0 0.00 0.05 0.05 99 1009.9
20260506031448 58 294 0.0 0.0 0.00 0.05 0.05 99 1009.8
20260506030946 58 293 0.0 0.0 0.00 0.05 0.05 99 1010.1
20260506030444 58 297 0.0 0.0 0.00 0.05 0.05 99 1009.8
20260506025940 58 288 0.0 0.0 0.00 0.05 0.05 99 1009.9
20260506025437 58 291 0.0 0.0 0.05 0.05 0.05 99 1010.0
20260506024934 58 298 0.0 0.0 0.05 0.05 0.05 99 1010.1
20260506024431 58 293 0.0 0.0 0.00 0.04 0.04 99 1010.1
20260506023926 58 293 0.0 0.0 0.00 0.04 0.04 99 1010.1
20260506023424 59 290 0.0 0.0 0.00 0.04 0.04 99 1009.9
20260506022920 59 293 0.0 0.0 0.00 0.04 0.04 99 1009.9
20260506022418 59 294 0.0 0.0 0.00 0.04 0.04 99 1009.5
20260506021916 58 293 0.0 0.0 0.00 0.04 0.04 99 1009.6
20260506021413 59 289 0.0 0.0 0.00 0.04 0.04 99 1009.7
20260506020910 59 293 0.0 0.0 0.00 0.04 0.04 99 1009.8
20260506020408 59 289 0.0 0.0 0.00 0.04 0.04 98 1010.0
20260506015904 59 291 0.0 0.0 0.00 0.04 0.04 98 1009.7
20260506015402 59 291 0.0 0.0 0.00 0.04 0.04 98 1009.8
20260506014859 59 289 0.0 0.0 0.00 0.04 0.04 98 1009.8
20260506014355 59 291 0.0 0.0 0.00 0.04 0.04 98 1009.8
20260506013852 59 293 0.0 0.0 0.00 0.04 0.04 97 1009.7
20260506013350 59 293 0.0 0.0 0.00 0.04 0.04 97 1009.7
20260506012846 59 293 0.0 0.0 0.00 0.04 0.04 97 1009.5
20260506012343 59 287 0.0 0.0 0.00 0.04 0.04 97 1009.6
20260506011840 59 292 0.0 0.0 0.00 0.04 0.04 96 1009.5
20260506011337 59 290 0.0 0.0 0.00 0.04 0.04 96 1009.5
20260506010834 60 245 1.7 1.7 0.00 0.04 0.04 96 1009.6
20260506010332 60 288 0.0 0.9 0.00 0.04 0.04 95 1009.6
20260506005829 60 295 0.0 0.0 0.00 0.04 0.04 95 1009.2
20260506005326 60 292 0.0 0.0 0.00 0.04 0.04 95 1009.1
20260506004822 60 293 0.0 0.0 0.00 0.04 0.04 94 1009.1
20260506004319 60 294 0.0 0.0 0.00 0.04 0.04 94 1009.2
20260506003815 60 292 0.0 0.0 0.00 0.04 0.04 93 1009.2
20260506003312 60 294 0.0 0.0 0.00 0.04 0.04 92 1008.7
20260506002808 60 292 0.0 0.0 0.00 0.04 0.04 93 1008.7
20260506002306 60 292 0.0 0.0 0.00 0.04 0.04 93 1008.7
20260506001800 60 292 0.0 0.0 0.00 0.04 0.04 92 1008.4
20260506001258 60 292 0.0 0.0 0.00 0.04 0.04 92 1008.2
20260506000755 60 292 0.0 0.0 0.00 0.04 0.04 92 1008.5